Estación de La Piedad

Ultimos registro cada 15 minutos 63
Estación Fecha / Hora Temperatura Humedad Lluvia Velocidad Dirección Radiación Presion
63 La Piedad 10-05-2026 15:30 19,5 60 0 0,9 191 343 1015
62 La Piedad 10-05-2026 15:15 19,1 61 0 1,3 186 376 1015,3
61 La Piedad 10-05-2026 15:00 18,9 61 0 1,8 165 417 1015,2
60 La Piedad 10-05-2026 14:45 18,5 63 0 1,3 175 446 1015,1
59 La Piedad 10-05-2026 14:30 18,3 62 0 1,8 217 476 1015,3
58 La Piedad 10-05-2026 14:15 17,9 61 0 1,8 165 269 1015,4
57 La Piedad 10-05-2026 14:00 17,4 64 0 1,3 212 520 1015,6
56 La Piedad 10-05-2026 13:45 16,9 64 0 2,2 206 54 1015,7
55 La Piedad 10-05-2026 13:30 16,7 66 0 2,7 239 33 1015,8
54 La Piedad 10-05-2026 13:15 16,1 67 0 2,2 165 547 1016,1
53 La Piedad 10-05-2026 13:00 15,2 69 0 1,3 207 575 1016,1
52 La Piedad 10-05-2026 12:45 14,6 70 0 0 237 580 1016,2
51 La Piedad 10-05-2026 12:30 14 71 0 1,8 214 575 1016,4
50 La Piedad 10-05-2026 12:15 13,2 74 0 0,4 205 571 1016,6
49 La Piedad 10-05-2026 12:00 12,7 75 0 1,3 262 503 1016,9
48 La Piedad 10-05-2026 11:45 12,1 77 0 0,4 262 33 1016,8
47 La Piedad 10-05-2026 11:30 11,4 80 0 0,4 236 32 1017
46 La Piedad 10-05-2026 11:15 10,8 83 0 0,4 234 33 1017,2
45 La Piedad 10-05-2026 11:00 9,9 87 0 0 245 206 1017,2
44 La Piedad 10-05-2026 10:45 9,1 90 0 0,9 216 464 1017
43 La Piedad 10-05-2026 10:30 8,2 94 0 0 225 436 1017,6
42 La Piedad 10-05-2026 10:15 7,2 98 0 1,8 237 387 1017,3
41 La Piedad 10-05-2026 10:00 6,6 98 0 0 237 330 1017,4
40 La Piedad 10-05-2026 09:45 5,9 98 0 0,4 235 330 1017,4
39 La Piedad 10-05-2026 09:30 5,2 98 0 0 216 176 1017,3
38 La Piedad 10-05-2026 09:15 4,1 98 0 0 216 195 1017,3
37 La Piedad 10-05-2026 09:00 1,6 97 0 0 216 98 1017,3
36 La Piedad 10-05-2026 08:45 0,4 97 0 0 216 65 1017,5
35 La Piedad 10-05-2026 08:30 -0,3 97 0 0 216 58 1017,3
34 La Piedad 10-05-2026 08:15 -1,1 96 0 0 216 53 1017,1
33 La Piedad 10-05-2026 08:00 -1,8 96 0 0 216 21 1017,1
32 La Piedad 10-05-2026 07:45 -1,9 95 0 0 216 12 1017,1
31 La Piedad 10-05-2026 07:30 -1,8 95 0 0 216 0 1016,9
30 La Piedad 10-05-2026 07:15 -1,3 95 0 0 216 0 1016,9
29 La Piedad 10-05-2026 07:00 -0,8 96 0 0 216 0 1017
28 La Piedad 10-05-2026 06:45 -1,1 96 0 0 216 0 1016,9
27 La Piedad 10-05-2026 06:30 -1,8 95 0 0 216 0 1016,8
26 La Piedad 10-05-2026 06:15 -1,6 95 0 0 216 0 1016,7
25 La Piedad 10-05-2026 06:00 -1,4 95 0 0 216 0 1016,6
24 La Piedad 10-05-2026 05:45 -1,3 96 0 0 216 0 1016,9
23 La Piedad 10-05-2026 05:30 -1,6 95 0 0 216 0 1016,8
22 La Piedad 10-05-2026 05:15 -1,3 94 0 0 216 0 1016,8
21 La Piedad 10-05-2026 05:00 -0,8 94 0 0 216 0 1016,6
20 La Piedad 10-05-2026 04:45 -0,2 94 0 0 216 0 1016,6
19 La Piedad 10-05-2026 04:30 0,7 96 0 0 216 0 1016,7
18 La Piedad 10-05-2026 04:15 0,6 96 0 0 216 0 1016,7
17 La Piedad 10-05-2026 04:00 0,3 95 0 0 216 0 1016,7
16 La Piedad 10-05-2026 03:45 0,2 94 0 0 216 0 1016,8
15 La Piedad 10-05-2026 03:30 0,9 95 0 0 216 0 1016,8
14 La Piedad 10-05-2026 03:15 1,1 95 0 0 216 0 1016,8
13 La Piedad 10-05-2026 03:00 1 95 0 0 216 0 1016,7
12 La Piedad 10-05-2026 02:45 1,1 94 0 0 216 0 1016,8
11 La Piedad 10-05-2026 02:30 1,7 93 0 0 216 0 1016,7
10 La Piedad 10-05-2026 02:15 2,5 95 0 0 216 0 1016,8
9 La Piedad 10-05-2026 02:00 2,7 95 0 0 216 0 1016,9
8 La Piedad 10-05-2026 01:45 2,7 95 0 0 216 0 1016,9
7 La Piedad 10-05-2026 01:30 2,8 94 0 0 216 0 1017
6 La Piedad 10-05-2026 01:15 3,4 95 0 0 216 0 1017,1
5 La Piedad 10-05-2026 01:00 3,3 96 0 0 216 0 1017,2
4 La Piedad 10-05-2026 00:45 1,7 95 0 0 216 0 1017,5
3 La Piedad 10-05-2026 00:30 1,2 93 0 0 216 0 1017,6
2 La Piedad 10-05-2026 00:15 1,8 93 0 0 216 0 1017,8
1 La Piedad 10-05-2026 00:00 2,7 92 0 0 216 0 1017,7